QPF
0.00 0.00 0.00 0.00 0.01 0.00 0.00 0.00 0.00 0.00 0.00 0.00 0.00 0.00 0.01 0.00 0.00 0.00 0.00 0.00 0.00 0.00 0.00 0.00 0.02 0.00 0.00 0.00 0.00 0.00 0.00 0.00 0.00 0.00 0.00 0.00 0.00 0.00 0.00 0.00 0.00 0.00 0.00 0.01 0.07 0.12 0.07 0.03 0.01
0.00 0.00 0.00 0.00 0.00 0.00 0.00 0.00 0.00 0.00 0.00 0.00 0.00 0.00 0.00 0.00 0.00 0.00 0.00 0.00 0.00 0.00 0.00 0.00 0.00 0.00 0.00 0.00 0.00 0.00 0.00 0.00 0.00 0.00 0.00 0.00 0.00 0.00 0.00 0.00 0.00 0.00 0.00 0.01 0.06 0.09 0.02 0.00 0.00
0.00 0.00 0.00 0.00 0.00 0.00 0.00 0.00 0.00 0.00 0.00 0.00 0.00 0.00 0.00 0.00 0.00 0.00 0.00 0.00 0.00 0.00 0.00 0.00 0.00 0.00 0.00 0.00 0.02 0.02 0.00 0.00 0.00 0.00 0.00 0.00 0.00 0.00 0.00 0.00 0.00 0.00 0.01 0.03 0.00 0.00 0.00 0.00 0.00
0.00 0.00 0.00 0.00 0.00 0.00 0.00 0.00 0.00 0.00 0.00 0.01 0.00 0.00 0.00 0.00 0.00 0.00 0.00 0.00 0.00 0.00 0.00 0.00 0.00 0.00 0.00 0.00 0.01 0.01 0.00 0.00 0.00 0.00 0.00 0.00 0.00 0.00 0.00 0.00 0.00 0.00 0.00 0.00 0.00 0.00 0.00 0.00 0.00
0.00 0.00 0.00 0.00 0.00 0.00 0.00 0.00 0.00 0.00 0.00 0.00 0.00 0.00 0.00 0.00 0.00 0.00 0.00 0.00 0.00 0.00 0.00 0.00 0.00 0.00 0.00 0.00 0.00 0.00 0.00 0.01 0.00 0.00 0.00 0.00 0.00 0.00 0.00 0.00 0.00 0.00 0.00 0.00 0.00 0.00 0.00 0.01 0.01
0.01 0.01 0.01 0.01 0.00 0.00 0.00 0.00 0.00 0.00 0.00 0.00 0.00 0.00 0.00 0.00 0.00 0.00 0.00 0.00 0.00 0.00 0.00 0.00 0.00 0.00 0.00 0.00 0.00 0.00 0.01 0.00 0.00 0.00 0.00 0.00 0.00 0.00 0.00 0.00 0.00 0.00 0.01 0.00 0.00 0.00 0.00 0.01 0.00
0.01 0.02 0.01 0.01 0.00 0.00 0.00 0.00 0.00 0.00 0.00 0.00 0.00 0.00 0.00 0.00 0.00 0.00 0.00 0.00 0.00 0.00 0.00 0.00 0.00 0.00 0.00 0.00 0.00 0.00 0.00 0.00 0.00 0.00 0.00 0.00 0.00 0.00 0.00 0.00 0.00 0.00 0.01 0.03 0.00 0.00 0.00 0.00 0.00
0.01 0.00 0.00 0.00 0.00 0.00 0.00 0.00 0.00 0.00 0.00 0.00 0.00 0.00 0.00 0.00 0.00 0.00 0.00 0.00 0.00 0.00 0.00 0.00 0.00 0.00 0.00 0.00 0.00 0.00 0.00 0.00 0.00 0.00 0.00 0.00 0.00 0.00 0.00 0.00 0.00 0.00 0.00 0.00 0.00 0.00 0.00 0.00 0.00
0.00 0.00 0.00 0.00 0.00 0.00 0.00 0.00 0.00 0.00 0.00 0.00 0.00 0.00 0.00 0.00 0.00 0.00 0.00 0.00 0.00 0.00 0.00 0.00 0.00 0.00 0.00 0.00 0.00 0.00 0.00 0.00 0.00 0.00 0.00 0.00 0.00 0.00 0.00 0.00 0.00 0.00 0.00 0.00 0.00 0.00 0.01 0.00 0.00
0.00 0.00 0.00 0.00 0.00 0.00 0.00 0.00 0.00 0.00 0.00 0.00 0.00 0.00 0.00 0.00 0.00 0.00 0.00 0.00 0.00 0.00 0.00 0.00 0.00 0.00 0.00 0.00 0.00 0.00 0.00 0.00 0.00 0.00 0.00 0.00 0.00 0.00 0.00 0.00 0.00 0.00 0.00 0.00 0.00 0.08 0.06 0.00 0.00
0.00 0.01 0.02 0.02 0.01 0.00 0.00 0.00 0.00 0.00 0.00 0.00 0.00 0.00 0.00 0.00 0.00 0.00 0.00 0.00 0.00 0.00 0.00 0.00 0.00 0.00 0.00 0.00 0.00 0.00 0.00 0.00 0.00 0.00 0.00 0.00 0.00 0.00 0.00 0.00 0.00 0.05 0.08 0.06 0.00 0.01 0.01 0.00 0.00
0.00 0.00 0.00 0.01 0.01 0.00 0.00 0.00 0.00 0.00 0.00 0.00 0.00 0.00 0.00 0.00 0.00 0.00 0.00 0.00 0.00 0.00 0.00 0.00 0.00 0.00 0.00 0.00 0.00 0.00 0.00 0.00 0.00 0.00 0.00 0.00 0.00 0.00 0.00 0.00 0.00 0.01 0.03 0.02 0.00 0.00 0.00 0.00 0.00
0.00 0.00 0.00 0.00 0.01 0.00 0.00 0.00 0.00 0.00 0.00 0.00 0.00 0.00 0.00 0.00 0.00 0.00 0.00 0.00 0.00 0.00 0.00 0.00 0.00 0.00 0.00 0.00 0.00 0.00 0.00 0.00 0.00 0.00 0.00 0.00 0.00 0.00 0.00 0.00 0.00 0.00 0.03 0.02 0.02 0.00 0.00 0.00 0.00
0.00 0.00 0.00 0.00 0.01 0.02 0.00 0.00 0.00 0.00 0.00 0.00 0.00 0.00 0.00 0.00 0.00 0.00 0.00 0.00 0.00 0.00 0.00 0.00 0.00 0.00 0.00 0.00 0.00 0.00 0.00 0.00 0.00 0.00 0.00 0.00 0.00 0.00 0.00 0.00 0.00 0.00 0.02 0.02 0.00 0.00 0.00 0.00 0.00
0.00 0.01 0.00 0.00 0.03 0.01 0.01 0.00 0.00 0.00 0.00 0.00 0.00 0.00 0.00 0.00 0.00 0.00 0.00 0.00 0.00 0.00 0.00 0.00 0.00 0.00 0.00 0.00 0.00 0.00 0.00 0.00 0.00 0.00 0.00 0.00 0.00 0.00 0.00 0.00 0.00 0.00 0.00 0.00 0.00 0.00 0.00 0.01 0.00
0.00 0.00 0.00 0.02 0.02 0.01 0.01 0.01 0.00 0.00 0.00 0.00 0.00 0.00 0.00 0.00 0.00 0.00 0.00 0.00 0.00 0.00 0.00 0.00 0.00 0.00 0.00 0.00 0.00 0.00 0.00 0.00 0.00 0.00 0.00 0.00 0.00 0.00 0.00 0.00 0.00 0.00 0.00 0.01 0.00 0.00 0.01 0.00 0.00
0.00 0.00 0.00 0.00 0.00 0.00 0.00 0.00 0.00 0.00 0.00 0.00 0.00 0.00 0.00 0.00 0.00 0.00 0.00 0.00 0.00 0.00 0.00 0.00 0.00 0.00 0.00 0.00 0.00 0.00 0.00 0.00 0.00 0.00 0.00 0.00 0.00 0.00 0.00 0.00 0.00 0.00 0.01 0.01 0.00 0.01 0.01 0.00 0.00
0.00 0.00 0.00 0.00 0.00 0.00 0.00 0.00 0.00 0.00 0.00 0.00 0.00 0.01 0.00 0.00 0.00 0.00 0.00 0.00 0.00 0.00 0.00 0.00 0.00 0.00 0.00 0.00 0.00 0.00 0.00 0.00 0.00 0.00 0.00 0.00 0.00 0.00 0.00 0.00 0.00 0.00 0.02 0.00 0.00 0.00 0.02 0.02 0.00
0.00 0.00 0.00 0.00 0.00 0.00 0.00 0.00 0.00 0.00 0.00 0.00 0.00 0.00 0.00 0.00 0.00 0.00 0.00 0.00 0.00 0.00 0.00 0.00 0.00 0.00 0.00 0.00 0.00 0.00 0.00 0.00 0.00 0.00 0.00 0.00 0.00 0.00 0.00 0.01 0.01 0.01 0.02 0.01 0.02 0.04 0.06 0.03 0.00
0.00 0.00 0.00 0.00 0.00 0.00 0.00 0.00 0.00 0.00 0.00 0.00 0.00 0.00 0.00 0.00 0.00 0.00 0.00 0.00 0.00 0.00 0.00 0.00 0.00 0.00 0.00 0.00 0.00 0.00 0.00 0.00 0.00 0.00 0.00 0.00 0.00 0.00 0.00 0.00 0.00 0.00 0.01 0.02 0.04 0.07 0.06 0.03 0.03
0.00 0.00 0.00 0.00 0.00 0.00 0.00 0.00 0.00 0.00 0.00 0.00 0.00 0.00 0.00 0.00 0.00 0.00 0.00 0.00 0.00 0.00 0.00 0.00 0.01 0.01 0.00 0.00 0.00 0.00 0.00 0.00 0.00 0.00 0.00 0.00 0.00 0.00 0.00 0.00 0.02 0.04 0.03 0.05 0.04 0.05 0.02 0.05 0.07
0.00 0.00 0.00 0.00 0.00 0.00 0.00 0.00 0.00 0.00 0.00 0.00 0.00 0.00 0.00 0.00 0.00 0.00 0.00 0.00 0.00 0.00 0.00 0.00 0.00 0.04 0.01 0.00 0.00 0.00 0.00 0.00 0.00 0.00 0.00 0.00 0.00 0.00 0.00 0.01 0.05 0.08 0.07 0.07 0.04 0.01 0.00 0.01 0.02
0.00 0.00 0.00 0.00 0.00 0.00 0.00 0.00 0.00 0.00 0.00 0.00 0.00 0.00 0.00 0.00 0.00 0.00 0.00 0.00 0.00 0.00 0.00 0.00 0.00 0.02 0.00 0.00 0.00 0.00 0.00 0.00 0.00 0.00 0.00 0.00 0.00 0.00 0.00 0.04 0.12 0.15 0.11 0.13 0.08 0.01 0.00 0.03 0.05
0.00 0.00 0.00 0.00 0.00 0.00 0.00 0.00 0.00 0.00 0.00 0.00 0.00 0.00 0.00 0.00 0.00 0.00 0.00 0.00 0.00 0.00 0.00 0.00 0.00 0.00 0.00 0.00 0.00 0.00 0.00 0.00 0.00 0.00 0.00 0.00 0.00 0.02 0.02 0.05 0.10 0.17 0.14 0.10 0.08 0.09 0.13 0.13 0.10
0.00 0.00 0.00 0.00 0.00 0.00 0.00 0.00 0.00 0.00 0.00 0.00 0.00 0.00 0.00 0.00 0.00 0.00 0.00 0.00 0.00 0.00 0.00 0.00 0.00 0.00 0.00 0.00 0.00 0.00 0.00 0.00 0.00 0.00 0.00 0.00 0.03 0.05 0.13 0.16 0.18 0.19 0.17 0.19 0.23 0.22 0.19 0.12 0.08
0.00 0.00 0.00 0.00 0.00 0.00 0.00 0.00 0.00 0.00 0.00 0.00 0.00 0.00 0.00 0.00 0.00 0.00 0.00 0.00 0.00 0.00 0.00 0.00 0.00 0.00 0.00 0.00 0.00 0.01 0.02 0.03 0.02 0.01 0.00 0.00 0.05 0.11 0.14 0.22 0.30 0.33 0.25 0.20 0.19 0.17 0.14 0.14 0.14
0.00 0.00 0.00 0.00 0.00 0.00 0.00 0.00 0.00 0.00 0.00 0.00 0.00 0.00 0.00 0.00 0.00 0.00 0.00 0.00 0.00 0.00 0.00 0.00 0.00 0.00 0.00 0.00 0.00 0.00 0.04 0.06 0.07 0.07 0.01 0.03 0.12 0.10 0.14 0.16 0.11 0.06 0.05 0.05 0.03 0.03 0.03 0.05 0.07
0.00 0.00 0.00 0.00 0.00 0.00 0.00 0.00 0.00 0.00 0.00 0.00 0.00 0.00 0.00 0.00 0.00 0.00 0.00 0.00 0.00 0.00 0.00 0.00 0.00 0.00 0.01 0.00 0.01 0.01 0.03 0.07 0.19 0.18 0.10 0.06 0.06 0.11 0.16 0.10 0.05 0.02 0.02 0.01 0.00 0.00 0.01 0.02 0.02
0.00 0.00 0.00 0.00 0.00 0.00 0.00 0.00 0.00 0.00 0.00 0.00 0.00 0.00 0.00 0.00 0.00 0.00 0.00 0.00 0.00 0.00 0.00 0.00 0.00 0.00 0.01 0.03 0.03 0.02 0.04 0.21 0.29 0.27 0.14 0.08 0.12 0.19 0.15 0.06 0.00 0.00 0.00 0.00 0.00 0.00 0.01 0.01 0.01
0.00 0.00 0.00 0.00 0.00 0.00 0.00 0.00 0.00 0.00 0.00 0.00 0.00 0.00 0.00 0.00 0.00 0.00 0.00 0.00 0.00 0.00 0.00 0.00 0.00 0.00 0.00 0.00 0.00 0.03 0.12 0.28 0.36 0.23 0.21 0.14 0.16 0.07 0.01 0.00 0.00 0.00 0.00 0.00 0.00 0.00 0.00 0.00 0.00
MSLP
1009.25 1009.33 1009.58 1009.79 1010.41 1009.97 1009.36 1008.62 1007.74 1007.51 1007.75 1008.16 1008.38 1008.73 1009.66 1010.37 1011.04 1012.44 1012.03 1012.19 1012.70 1013.28 1013.63 1013.97 1014.28 1014.66 1015.01 1015.44 1015.66 1015.78 1016.03 1016.13 1016.22 1016.40 1016.72 1016.81 1016.80 1016.94 1017.11 1017.25 1017.25 1017.23 1017.38 1017.52 1017.72 1017.71 1018.02 1018.10 1018.02
1009.12 1009.40 1009.68 1009.92 1010.22 1010.28 1009.32 1008.17 1008.36 1007.49 1007.63 1008.05 1008.36 1008.81 1009.48 1010.50 1010.99 1011.76 1012.21 1012.38 1012.64 1013.16 1013.71 1014.00 1014.35 1014.82 1015.31 1015.60 1015.80 1016.05 1016.17 1016.24 1016.25 1016.62 1016.88 1016.91 1016.85 1016.95 1017.11 1017.29 1017.35 1017.44 1017.43 1017.61 1017.82 1018.00 1018.14 1018.20 1018.33
1009.10 1009.26 1009.88 1010.18 1010.36 1010.09 1009.11 1007.91 1007.87 1007.97 1007.86 1007.92 1008.51 1008.87 1009.69 1010.67 1011.19 1011.74 1011.97 1012.48 1012.95 1013.62 1014.02 1014.35 1014.59 1014.95 1015.37 1015.78 1015.96 1016.25 1016.39 1016.42 1016.43 1016.77 1016.95 1016.93 1016.95 1017.07 1017.27 1017.44 1017.49 1017.50 1017.58 1017.74 1017.78 1018.02 1018.17 1018.30 1018.25
1009.25 1009.82 1010.18 1010.08 1009.95 1008.99 1008.14 1007.51 1007.45 1007.56 1007.68 1007.93 1008.68 1009.64 1010.14 1010.38 1011.14 1011.62 1012.34 1012.90 1013.47 1013.96 1014.24 1014.42 1014.65 1015.07 1015.53 1015.92 1016.27 1016.40 1016.53 1016.54 1016.73 1016.95 1016.94 1016.82 1016.89 1017.02 1017.28 1017.37 1017.52 1017.50 1017.57 1017.72 1017.84 1018.13 1018.19 1018.19 1018.24
1009.35 1009.82 1010.00 1009.84 1009.21 1007.99 1007.17 1007.04 1007.10 1007.32 1007.85 1008.26 1008.70 1010.27 1010.88 1011.26 1011.39 1012.06 1012.65 1013.17 1013.64 1014.18 1014.43 1014.65 1014.91 1015.28 1015.70 1016.09 1016.28 1016.45 1016.58 1016.68 1016.86 1016.99 1016.92 1016.86 1016.93 1017.11 1017.25 1017.30 1017.39 1017.50 1017.59 1017.70 1017.89 1017.98 1018.02 1017.95 1017.99
1009.67 1010.31 1010.18 1009.56 1008.36 1007.22 1006.59 1006.59 1006.84 1007.37 1008.10 1008.59 1009.25 1010.23 1011.51 1011.55 1011.71 1012.42 1012.87 1013.38 1013.74 1014.18 1014.46 1014.82 1015.07 1015.29 1015.63 1015.98 1016.28 1016.50 1016.57 1016.72 1016.89 1016.99 1017.02 1017.03 1017.09 1017.20 1017.27 1017.25 1017.38 1017.61 1017.57 1017.74 1017.81 1017.89 1017.88 1017.75 1017.72
1010.24 1010.55 1010.21 1009.30 1007.97 1006.88 1006.21 1006.28 1006.76 1007.37 1008.05 1008.49 1008.91 1010.56 1011.90 1012.05 1012.03 1012.44 1013.19 1013.82 1014.13 1014.41 1014.71 1014.82 1014.99 1015.29 1015.60 1015.94 1016.22 1016.35 1016.52 1016.67 1016.82 1016.96 1017.06 1017.14 1017.23 1017.26 1017.33 1017.28 1017.41 1017.60 1017.60 1017.85 1017.65 1017.71 1017.61 1017.58 1017.43
1010.65 1011.03 1010.24 1009.23 1007.93 1006.61 1006.01 1006.19 1006.61 1007.01 1007.98 1008.32 1008.77 1010.14 1011.80 1011.79 1012.38 1012.88 1013.61 1014.12 1014.46 1014.78 1014.96 1015.16 1015.19 1015.31 1015.67 1015.94 1016.12 1016.36 1016.49 1016.52 1016.60 1016.80 1016.96 1017.07 1017.18 1017.35 1017.38 1017.47 1017.58 1017.61 1017.75 1017.65 1017.52 1017.41 1017.34 1017.52 1017.39
1010.67 1010.76 1009.93 1008.73 1007.57 1006.49 1005.93 1006.36 1007.05 1007.20 1007.68 1008.24 1008.91 1009.28 1009.93 1011.39 1012.31 1013.13 1013.99 1014.61 1014.82 1015.06 1015.25 1015.34 1015.53 1015.49 1015.60 1015.88 1016.07 1016.26 1016.37 1016.41 1016.49 1016.60 1016.89 1017.11 1017.26 1017.40 1017.47 1017.57 1017.65 1017.67 1017.70 1017.74 1017.66 1017.50 1017.52 1017.46 1017.43
1010.91 1010.64 1009.56 1008.19 1006.91 1006.32 1005.99 1006.03 1006.85 1007.49 1008.07 1008.56 1009.13 1009.71 1010.50 1011.55 1012.41 1013.21 1013.82 1014.10 1014.59 1014.90 1015.20 1015.45 1015.49 1015.49 1015.61 1015.73 1016.09 1016.30 1016.33 1016.43 1016.51 1016.64 1016.90 1017.23 1017.39 1017.51 1017.49 1017.58 1017.52 1017.72 1017.66 1017.65 1017.63 1017.53 1017.51 1017.32 1017.60
1010.41 1010.25 1009.06 1007.60 1005.81 1006.07 1006.00 1006.21 1006.61 1007.39 1008.20 1008.17 1008.73 1009.90 1010.89 1011.76 1012.60 1013.06 1013.43 1013.45 1013.43 1014.20 1014.82 1015.12 1015.39 1015.44 1015.54 1015.57 1016.01 1016.30 1016.47 1016.57 1016.67 1016.70 1016.90 1017.14 1017.40 1017.59 1017.56 1017.52 1017.43 1017.50 1017.68 1017.67 1017.57 1017.46 1017.44 1017.27 1017.41
1009.88 1009.11 1008.55 1007.37 1006.68 1006.28 1005.99 1005.85 1006.77 1007.03 1007.20 1007.44 1008.28 1009.19 1010.49 1011.50 1012.13 1012.72 1013.11 1013.42 1013.67 1014.00 1014.50 1014.92 1015.09 1015.47 1015.62 1015.66 1015.89 1016.14 1016.39 1016.57 1016.78 1016.81 1016.88 1017.14 1017.39 1017.47 1017.46 1017.39 1017.30 1017.44 1017.52 1017.71 1017.53 1017.51 1017.59 1017.22 1017.33
1009.25 1008.31 1007.48 1006.86 1006.20 1006.17 1005.96 1006.39 1006.41 1007.04 1007.22 1007.70 1008.80 1009.46 1010.28 1011.00 1011.71 1012.18 1012.26 1012.82 1013.34 1013.74 1013.98 1014.49 1015.01 1015.36 1015.40 1015.69 1015.82 1016.16 1016.48 1016.52 1016.48 1016.61 1016.71 1017.01 1017.25 1017.30 1017.35 1017.26 1017.10 1016.98 1017.29 1017.55 1017.47 1017.29 1017.52 1017.23 1017.20
1008.87 1008.70 1007.91 1006.54 1006.41 1006.58 1006.76 1006.63 1006.42 1007.54 1007.85 1008.34 1008.88 1009.40 1009.83 1010.60 1011.12 1011.74 1012.23 1012.49 1012.95 1013.29 1013.54 1013.84 1014.32 1014.72 1015.09 1015.61 1015.68 1015.80 1016.03 1016.23 1016.58 1016.59 1016.47 1016.63 1016.91 1017.00 1017.05 1016.93 1016.87 1016.82 1016.97 1016.96 1017.14 1017.09 1017.26 1017.39 1017.28
1009.12 1008.77 1008.16 1007.83 1007.32 1007.22 1007.33 1007.51 1007.79 1007.95 1008.11 1008.49 1008.81 1009.24 1009.61 1009.68 1010.10 1010.49 1010.80 1011.33 1011.58 1012.21 1012.90 1013.15 1013.37 1013.96 1014.64 1015.07 1015.22 1015.38 1015.62 1015.93 1016.23 1016.24 1016.32 1016.39 1016.53 1016.66 1016.74 1016.61 1016.70 1016.47 1016.73 1016.68 1016.97 1017.14 1017.35 1017.51 1017.44
1009.01 1009.27 1008.93 1008.24 1007.58 1007.21 1007.18 1007.67 1008.01 1008.41 1008.52 1008.76 1008.99 1009.24 1009.43 1009.45 1009.19 1009.38 1010.14 1010.44 1010.76 1011.26 1012.00 1012.50 1012.87 1013.24 1013.75 1014.24 1014.51 1014.78 1014.93 1015.20 1015.48 1015.76 1015.96 1016.01 1016.07 1016.13 1016.30 1016.47 1016.50 1016.31 1016.54 1016.56 1016.76 1017.16 1017.64 1017.49 1017.55
1009.44 1009.11 1008.75 1008.11 1007.52 1007.50 1007.75 1008.12 1007.97 1008.69 1008.73 1008.83 1009.00 1009.20 1009.19 1009.11 1009.14 1008.97 1008.93 1009.51 1009.99 1010.44 1011.26 1012.00 1012.41 1012.62 1013.08 1013.59 1013.91 1014.14 1014.34 1014.50 1014.60 1014.99 1015.28 1015.39 1015.56 1015.67 1015.90 1015.92 1016.06 1016.27 1016.31 1016.45 1016.75 1017.18 1017.46 1017.51 1017.42
1009.22 1009.19 1008.93 1008.32 1007.69 1007.61 1007.78 1008.03 1008.56 1008.83 1008.79 1008.85 1008.97 1009.04 1008.85 1008.61 1008.12 1008.12 1008.38 1008.66 1009.35 1010.00 1010.63 1011.24 1011.78 1012.10 1012.62 1013.05 1013.55 1013.86 1014.15 1014.22 1014.02 1014.19 1014.47 1014.70 1014.98 1015.08 1015.29 1015.37 1015.55 1015.60 1016.18 1016.50 1016.70 1016.87 1017.07 1017.27 1017.42
1008.69 1008.88 1008.78 1008.05 1007.59 1007.84 1007.85 1007.76 1008.44 1008.77 1008.80 1008.99 1009.13 1008.74 1008.24 1007.71 1007.20 1007.59 1007.69 1008.19 1008.92 1009.68 1010.29 1010.75 1011.42 1011.91 1012.52 1013.06 1013.49 1013.92 1013.90 1013.87 1013.87 1013.76 1013.70 1014.01 1014.28 1014.38 1014.61 1014.79 1015.21 1015.37 1015.91 1016.24 1016.49 1016.83 1016.92 1017.22 1017.37
1008.33 1008.43 1008.31 1007.68 1007.27 1007.77 1007.81 1007.54 1007.64 1007.93 1008.01 1008.28 1008.44 1008.36 1008.24 1007.76 1007.56 1007.28 1007.32 1007.80 1008.34 1008.93 1009.50 1010.45 1010.70 1010.98 1011.29 1011.70 1012.09 1012.66 1012.95 1013.10 1013.09 1013.15 1013.27 1013.41 1013.62 1014.02 1014.25 1014.51 1014.66 1015.03 1015.40 1016.10 1016.49 1016.60 1016.96 1017.43 1017.63
1007.75 1008.03 1007.84 1007.76 1007.56 1007.64 1007.84 1008.16 1007.74 1007.52 1007.87 1007.89 1007.70 1007.79 1007.68 1007.46 1007.71 1007.25 1007.21 1007.45 1008.06 1008.67 1008.95 1009.61 1009.88 1010.65 1010.71 1011.05 1011.71 1012.15 1012.45 1012.77 1012.94 1012.96 1012.93 1012.83 1012.88 1013.02 1013.44 1013.90 1014.22 1014.53 1014.93 1015.40 1015.77 1016.07 1016.36 1017.07 1017.34
1007.21 1006.14 1006.79 1007.32 1007.86 1008.21 1008.28 1008.97 1008.13 1007.54 1007.62 1007.63 1007.08 1007.01 1006.84 1006.75 1007.09 1007.05 1007.05 1007.18 1007.44 1007.84 1008.50 1008.88 1009.32 1009.90 1010.23 1010.94 1011.26 1011.49 1011.38 1011.82 1011.74 1011.84 1012.16 1012.17 1012.19 1012.38 1012.78 1013.20 1013.74 1014.33 1014.64 1014.93 1015.00 1015.37 1015.72 1016.19 1016.73
1005.61 1005.65 1006.40 1007.37 1008.18 1008.52 1008.98 1009.36 1007.76 1007.77 1007.60 1006.79 1006.02 1005.92 1005.99 1005.82 1006.25 1006.27 1006.59 1006.51 1006.64 1007.37 1007.87 1008.20 1008.76 1009.25 1009.32 1009.85 1010.12 1010.54 1010.95 1011.04 1011.17 1011.47 1011.79 1011.88 1011.78 1011.75 1012.12 1012.69 1013.16 1013.92 1014.32 1014.73 1014.87 1015.11 1015.48 1015.62 1016.03
1004.46 1005.64 1006.72 1008.05 1008.89 1009.70 1008.54 1008.99 1007.89 1007.31 1006.45 1006.07 1005.53 1005.24 1005.00 1005.10 1005.29 1005.47 1005.77 1006.10 1006.37 1006.76 1007.20 1007.61 1008.02 1008.33 1008.69 1008.89 1009.11 1009.72 1010.07 1010.35 1010.93 1011.08 1011.19 1011.47 1011.49 1011.39 1011.83 1012.22 1012.69 1013.25 1013.75 1014.34 1014.47 1014.68 1015.06 1015.44 1015.77
1004.63 1006.15 1007.63 1009.05 1009.88 1009.66 1008.86 1008.84 1006.66 1005.66 1005.22 1004.98 1005.02 1004.78 1004.68 1004.65 1004.88 1005.09 1005.71 1005.97 1006.07 1006.44 1006.77 1007.40 1008.03 1008.10 1008.22 1008.46 1008.63 1008.94 1009.40 1009.79 1010.05 1010.57 1011.01 1011.22 1011.39 1011.43 1011.65 1012.02 1012.38 1012.58 1013.18 1013.67 1014.05 1014.59 1014.82 1015.17 1015.84
1004.71 1006.10 1007.68 1009.13 1010.27 1009.85 1008.99 1007.94 1005.73 1004.76 1004.46 1004.20 1004.64 1004.74 1004.84 1004.96 1004.95 1005.23 1005.38 1005.98 1006.37 1006.65 1006.82 1006.88 1007.19 1007.43 1008.18 1008.40 1008.54 1008.77 1009.37 1009.90 1010.08 1010.28 1010.58 1011.07 1011.45 1011.65 1011.68 1012.06 1012.35 1012.54 1012.91 1013.34 1013.49 1014.68 1014.17 1015.08 1015.46
1004.69 1006.05 1006.80 1008.46 1009.92 1010.22 1008.99 1007.34 1005.18 1004.58 1004.70 1004.74 1005.36 1005.49 1005.51 1005.43 1005.50 1005.48 1005.73 1006.19 1006.55 1006.68 1007.01 1007.53 1007.91 1008.19 1008.35 1008.60 1008.84 1009.07 1009.35 1009.42 1009.83 1010.29 1011.15 1011.32 1011.67 1011.86 1012.11 1012.47 1012.31 1012.56 1012.71 1013.03 1013.45 1013.81 1013.97 1014.94 1015.07
1004.31 1005.46 1007.00 1008.69 1010.02 1010.39 1009.22 1007.92 1006.48 1005.30 1005.16 1005.12 1005.57 1005.81 1005.94 1005.91 1006.13 1006.12 1006.28 1006.46 1006.59 1006.83 1007.34 1007.62 1007.86 1008.01 1008.12 1008.28 1008.48 1008.63 1008.82 1009.30 1009.80 1010.41 1010.71 1010.91 1011.29 1012.23 1012.37 1012.63 1012.56 1012.77 1012.85 1012.93 1013.11 1013.17 1013.68 1014.27 1014.64
1005.02 1005.83 1007.40 1009.13 1010.16 1010.43 1009.96 1008.19 1005.85 1005.35 1004.91 1005.15 1005.47 1005.91 1006.14 1006.33 1006.50 1006.41 1006.49 1006.63 1006.87 1006.99 1007.13 1007.41 1007.68 1007.84 1007.87 1007.94 1007.98 1008.28 1008.75 1009.24 1009.77 1010.31 1010.59 1010.77 1010.68 1011.17 1012.34 1012.39 1012.31 1012.46 1012.61 1012.76 1013.06 1013.10 1013.77 1014.32 1014.34
1005.56 1006.30 1007.60 1009.41 1010.38 1010.22 1009.65 1007.51 1005.73 1005.00 1005.08 1005.12 1005.70 1006.16 1006.44 1006.59 1006.62 1006.79 1007.06 1007.19 1007.28 1007.28 1007.44 1007.55 1007.68 1007.93 1008.01 1007.95 1007.93 1008.07 1008.47 1009.04 1009.78 1010.50 1011.35 1011.46 1010.17 1010.47 1011.61 1012.08 1012.05 1012.43 1012.80 1012.47 1012.92 1013.11 1013.43 1014.07 1014.30
Thickness
5815 5816 5815 5802 5772 5761 5756 5768 5793 5785 5785 5794 5801 5795 5785 5784 5778 5755 5791 5793 5789 5785 5782 5777 5775 5773 5770 5766 5765 5763 5761 5760 5761 5761 5758 5757 5757 5755 5754 5753 5752 5751 5749 5747 5745 5744 5742 5742 5742
5821 5817 5808 5790 5759 5744 5752 5786 5773 5789 5793 5797 5797 5795 5788 5775 5791 5787 5786 5792 5791 5788 5783 5779 5776 5772 5768 5767 5766 5764 5765 5764 5764 5762 5759 5758 5758 5758 5757 5755 5753 5752 5752 5750 5746 5745 5744 5742 5741
5823 5821 5794 5775 5757 5748 5757 5788 5787 5790 5798 5800 5793 5801 5791 5780 5790 5791 5797 5795 5791 5787 5784 5780 5777 5773 5769 5766 5765 5765 5765 5765 5766 5764 5762 5761 5762 5761 5758 5755 5754 5755 5754 5753 5751 5749 5747 5745 5744
5817 5806 5796 5769 5764 5781 5785 5794 5796 5796 5803 5807 5798 5780 5795 5805 5798 5799 5798 5794 5790 5787 5783 5780 5778 5774 5771 5768 5766 5765 5765 5765 5765 5764 5764 5765 5764 5763 5760 5759 5757 5759 5759 5758 5755 5752 5750 5749 5747
5816 5800 5778 5773 5776 5792 5805 5808 5807 5799 5798 5799 5801 5777 5781 5798 5804 5799 5796 5794 5790 5786 5783 5780 5778 5775 5771 5769 5767 5766 5766 5767 5766 5765 5766 5767 5767 5765 5763 5762 5762 5762 5763 5761 5759 5756 5755 5753 5752
5798 5794 5772 5768 5785 5805 5812 5818 5814 5804 5800 5799 5794 5784 5780 5800 5801 5798 5797 5794 5791 5788 5784 5780 5778 5776 5774 5771 5769 5768 5769 5769 5769 5768 5767 5769 5768 5766 5765 5766 5766 5764 5765 5763 5762 5760 5759 5758 5757
5794 5783 5773 5779 5793 5802 5815 5826 5809 5804 5802 5801 5810 5782 5782 5790 5800 5801 5796 5792 5789 5785 5782 5781 5780 5778 5776 5773 5771 5771 5771 5772 5772 5771 5770 5770 5769 5768 5767 5767 5768 5767 5766 5764 5766 5765 5765 5763 5762
5798 5786 5780 5784 5783 5800 5823 5822 5823 5813 5806 5823 5820 5786 5774 5795 5800 5799 5793 5789 5787 5784 5782 5781 5781 5780 5777 5775 5774 5773 5773 5775 5776 5774 5773 5772 5770 5768 5768 5767 5768 5768 5765 5766 5768 5769 5769 5766 5766
5808 5777 5773 5785 5794 5804 5828 5813 5825 5831 5817 5820 5820 5814 5814 5807 5802 5794 5787 5785 5783 5783 5782 5780 5780 5781 5780 5777 5776 5775 5776 5777 5778 5777 5775 5773 5772 5769 5768 5768 5768 5768 5766 5767 5768 5770 5770 5769 5768
5791 5775 5783 5810 5818 5813 5825 5822 5821 5815 5811 5810 5812 5818 5816 5808 5800 5790 5787 5785 5784 5783 5783 5782 5781 5782 5782 5780 5778 5777 5777 5777 5779 5778 5777 5774 5772 5770 5769 5768 5769 5768 5767 5768 5769 5770 5769 5771 5770
5797 5781 5806 5817 5834 5829 5827 5826 5831 5814 5802 5815 5811 5811 5809 5804 5798 5794 5793 5794 5794 5791 5787 5787 5785 5785 5784 5784 5781 5780 5778 5777 5777 5778 5778 5776 5773 5769 5769 5770 5770 5771 5769 5770 5770 5771 5771 5773 5771
5795 5812 5813 5820 5827 5825 5824 5839 5820 5823 5822 5834 5829 5823 5813 5804 5801 5796 5795 5795 5795 5793 5791 5789 5787 5785 5784 5784 5782 5781 5779 5778 5777 5778 5778 5776 5773 5771 5771 5772 5772 5772 5772 5771 5772 5773 5772 5775 5773
5807 5818 5828 5834 5837 5832 5837 5826 5829 5826 5833 5836 5828 5822 5813 5808 5804 5803 5803 5802 5799 5796 5796 5793 5790 5787 5786 5784 5783 5781 5778 5777 5778 5779 5778 5775 5773 5772 5771 5772 5773 5776 5774 5772 5772 5775 5774 5776 5776
5814 5821 5822 5837 5832 5830 5820 5826 5833 5829 5833 5827 5824 5818 5818 5812 5807 5805 5802 5800 5798 5799 5800 5800 5796 5792 5788 5785 5784 5783 5781 5779 5777 5777 5779 5777 5774 5773 5773 5773 5773 5775 5776 5774 5773 5773 5773 5774 5775
5819 5804 5817 5817 5826 5821 5825 5811 5810 5829 5832 5825 5823 5821 5819 5818 5818 5813 5815 5812 5811 5807 5804 5802 5802 5798 5793 5790 5788 5786 5784 5780 5777 5777 5777 5777 5775 5773 5772 5774 5774 5775 5775 5775 5772 5771 5771 5770 5771
5804 5798 5786 5812 5823 5830 5825 5781 5817 5826 5823 5822 5821 5819 5820 5821 5826 5830 5824 5822 5822 5818 5812 5808 5806 5803 5799 5796 5792 5789 5788 5785 5782 5779 5777 5777 5776 5775 5773 5773 5774 5774 5773 5773 5773 5770 5767 5769 5769
5796 5781 5789 5804 5827 5824 5816 5792 5818 5820 5821 5820 5820 5819 5822 5824 5827 5832 5835 5833 5829 5826 5818 5812 5810 5808 5804 5799 5794 5790 5789 5789 5788 5783 5780 5779 5776 5775 5773 5774 5773 5771 5772 5772 5770 5767 5765 5764 5766
5791 5790 5793 5793 5818 5822 5814 5807 5812 5816 5820 5821 5820 5818 5821 5826 5834 5840 5840 5840 5835 5829 5823 5817 5813 5811 5807 5803 5798 5792 5788 5787 5788 5787 5783 5780 5777 5776 5776 5776 5776 5774 5770 5768 5768 5766 5764 5761 5760
5811 5802 5795 5810 5825 5818 5812 5813 5818 5820 5819 5817 5817 5820 5824 5833 5844 5845 5844 5842 5836 5829 5822 5817 5811 5808 5804 5797 5793 5789 5787 5784 5783 5785 5785 5782 5779 5778 5776 5777 5774 5770 5765 5763 5762 5761 5761 5756 5756
5811 5802 5798 5816 5831 5821 5816 5820 5829 5831 5830 5828 5827 5826 5829 5832 5836 5842 5844 5841 5836 5829 5825 5816 5814 5812 5811 5808 5805 5799 5795 5792 5791 5786 5783 5782 5780 5775 5772 5772 5772 5769 5764 5757 5753 5756 5753 5749 5747
5810 5801 5806 5808 5827 5829 5820 5806 5819 5835 5836 5837 5838 5836 5836 5835 5834 5841 5843 5841 5838 5830 5826 5820 5819 5814 5814 5810 5803 5797 5793 5788 5784 5783 5781 5781 5779 5777 5771 5767 5766 5766 5763 5759 5756 5753 5751 5743 5743
5793 5835 5830 5823 5807 5784 5821 5771 5806 5824 5825 5833 5842 5841 5842 5844 5843 5845 5845 5843 5842 5839 5834 5829 5824 5817 5813 5805 5799 5794 5794 5787 5789 5787 5783 5781 5778 5774 5769 5764 5759 5755 5756 5755 5754 5752 5750 5747 5741
5822 5844 5830 5825 5803 5803 5801 5781 5805 5816 5817 5830 5845 5848 5850 5854 5851 5852 5850 5852 5853 5846 5839 5835 5828 5821 5818 5811 5806 5799 5795 5793 5788 5784 5778 5775 5775 5773 5766 5759 5755 5749 5747 5746 5744 5741 5741 5742 5739
5859 5838 5822 5805 5791 5768 5797 5788 5795 5806 5823 5835 5847 5850 5857 5859 5859 5859 5858 5855 5851 5848 5843 5837 5831 5827 5821 5817 5812 5803 5797 5790 5781 5778 5774 5771 5771 5770 5763 5756 5752 5746 5743 5740 5740 5738 5733 5728 5728
5844 5811 5771 5775 5761 5766 5792 5787 5809 5832 5839 5847 5848 5852 5859 5861 5858 5856 5851 5849 5847 5844 5840 5834 5825 5822 5819 5815 5810 5803 5796 5789 5784 5775 5768 5764 5764 5761 5757 5751 5747 5746 5740 5736 5735 5728 5724 5722 5719
5836 5816 5775 5768 5754 5764 5796 5785 5811 5842 5851 5858 5853 5854 5857 5856 5853 5851 5852 5846 5842 5838 5834 5830 5826 5822 5811 5806 5801 5795 5785 5777 5774 5770 5763 5756 5755 5748 5748 5743 5740 5738 5737 5727 5728 5715 5724 5715 5712
5832 5811 5826 5784 5776 5762 5776 5801 5837 5848 5844 5845 5836 5840 5840 5844 5846 5846 5842 5837 5833 5832 5826 5820 5814 5809 5805 5797 5789 5782 5775 5770 5764 5757 5745 5741 5737 5736 5731 5729 5730 5730 5732 5728 5723 5717 5716 5706 5708
5843 5839 5802 5778 5769 5767 5766 5779 5787 5823 5827 5835 5832 5831 5834 5839 5836 5835 5833 5830 5828 5825 5818 5815 5809 5802 5797 5790 5782 5774 5768 5757 5749 5740 5734 5734 5725 5715 5715 5716 5718 5719 5718 5718 5713 5712 5709 5701 5699
5820 5813 5796 5781 5765 5751 5744 5767 5817 5825 5832 5831 5834 5832 5830 5830 5829 5829 5829 5827 5823 5818 5813 5806 5800 5793 5787 5780 5773 5763 5753 5744 5735 5726 5721 5720 5722 5709 5706 5703 5711 5713 5712 5713 5709 5707 5700 5695 5694
5832 5818 5792 5765 5771 5756 5750 5767 5830 5830 5835 5834 5827 5827 5826 5827 5824 5821 5817 5814 5811 5807 5802 5798 5792 5783 5776 5771 5764 5755 5744 5734 5722 5712 5703 5702 5713 5710 5698 5696 5705 5702 5702 5707 5703 5700 5698 5689 5688